This is the latest recevied weather packets stored in our database for station/object JS2WAD-13. If no packets are shown the sender has not sent any weather packets the latest 10 day(s).
| Time | Temp. | Humidity | Pressure | Rain* | Wind** | Luminosity | Snow |
|---|---|---|---|---|---|---|---|
| 1777331808 | 16.67° C | 71% | 905.2 hPa | 0 mm | - | 69 W/m² | - |
| 1777331508 | 16.67° C | 72% | 905.2 hPa | 0 mm | - | 58 W/m² | - |
| 1777331208 | 16.67° C | 72% | 905.3 hPa | 0 mm | - | 46 W/m² | - |
| 1777330908 | 16.11° C | 75% | 905.3 hPa | 0 mm | - | 42 W/m² | - |
| 1777330608 | 16.11° C | 73% | 905.3 hPa | 0 mm | - | 44 W/m² | - |
| 1777330308 | 16.11° C | 73% | 905.3 hPa | 0 mm | - | 44 W/m² | - |
| 1777330008 | 16.11° C | 74% | 905.3 hPa | 0 mm | - | 44 W/m² | - |
| 1777329708 | 16.11° C | 80% | 905.4 hPa | 0 mm | - | 42 W/m² | - |
| 1777329408 | 16.11° C | 75% | 905.4 hPa | 0 mm | - | 46 W/m² | - |
| 1777329108 | 15.56° C | 76% | 905.3 hPa | 0 mm | - | 44 W/m² | - |
| 1777328808 | 15.56° C | 81% | 905.3 hPa | 0 mm | - | 39 W/m² | - |
| 1777328508 | 15.56° C | 79% | 905.4 hPa | 0 mm | - | 37 W/m² | - |
| 1777328208 | 15.56° C | 76% | 905.3 hPa | 0 mm | - | 35 W/m² | - |
| 1777327908 | 15° C | 77% | 905.4 hPa | 0 mm | - | 33 W/m² | - |
| 1777327608 | 15° C | 79% | 905.3 hPa | 0 mm | - | 33 W/m² | - |
| 1777327308 | 15° C | 80% | 905.3 hPa | 0 mm | - | 35 W/m² | - |
| 1777327008 | 15° C | 85% | 905.3 hPa | 0 mm | - | 35 W/m² | - |
| 1777326708 | 15° C | 85% | 905.4 hPa | 0 mm | - | 35 W/m² | - |
| 1777326408 | 15° C | 87% | 905.3 hPa | 0 mm | - | 33 W/m² | - |
| 1777326108 | 15° C | 87% | 905.3 hPa | 0 mm | - | 32 W/m² | - |
| 1777325808 | 15° C | 86% | 905.4 hPa | 0 mm | - | 30 W/m² | - |
| 1777325508 | 15° C | 86% | 905.4 hPa | 0 mm | - | 28 W/m² | - |
| 1777325208 | 15° C | 86% | 905.4 hPa | 0 mm | - | 28 W/m² | - |
| 1777324908 | 15° C | 79% | 905.4 hPa | 0 mm | - | 28 W/m² | - |
| 1777324608 | 14.44° C | 82% | 905.4 hPa | 0 mm | - | 28 W/m² | - |
* Rain latest hour (hover to see other rain measurements)
** Current wind speed in m/s (hover to see current wind gust speed)